Time,TemperatureF,DewpointF,PressureIn,WindDirection,WindDirectionDegrees,WindSpeedMPH,WindSpeedGustMPH,Humidity,HourlyPrecipIn,Conditions,Clouds,dailyrainin,SoftwareType,DateUTC
2015-05-06 00:00:00,51.3,50.5,30.27,ENE,64,3.0,5.0,97,0.08,,,0.76,Wunderground v.1.15,2015-05-06 04:00:00,
2015-05-06 00:05:00,51.3,50.5,30.27,ENE,63,2.0,5.0,97,0.06,,,0.77,Wunderground v.1.15,2015-05-06 04:05:00,
2015-05-06 00:10:00,51.3,50.5,30.27,NE,47,1.0,3.0,97,0.06,,,0.77,Wunderground v.1.15,2015-05-06 04:10:00,
2015-05-06 00:15:00,51.3,50.5,30.27,ENE,60,1.0,3.0,97,0.05,,,0.00,Wunderground v.1.15,2015-05-06 04:15:00,
2015-05-06 00:20:00,51.1,50.3,30.27,ENE,61,2.0,2.0,97,0.04,,,0.00,Wunderground v.1.15,2015-05-06 04:20:00,
2015-05-06 00:30:00,51.0,50.2,30.28,NE,43,1.0,2.0,97,0.00,,,0.00,Wunderground v.1.15,2015-05-06 04:30:00,
2015-05-06 00:35:00,50.9,50.1,30.28,ENE,78,1.0,2.0,97,0.00,,,0.01,Wunderground v.1.15,2015-05-06 04:35:00,
2015-05-06 00:40:00,50.9,50.1,30.29,SE,133,1.0,1.0,97,0.00,,,0.01,Wunderground v.1.15,2015-05-06 04:40:00,
2015-05-06 00:45:00,50.9,50.1,30.30,SSE,150,0.0,1.0,97,0.06,,,0.02,Wunderground v.1.15,2015-05-06 04:45:00,
2015-05-06 00:50:00,50.8,50.0,30.29,East,100,0.0,0.0,97,0.49,,,0.08,Wunderground v.1.15,2015-05-06 04:50:00,
2015-05-06 00:55:00,50.8,50.0,30.28,East,85,1.0,3.0,97,0.24,,,0.11,Wunderground v.1.15,2015-05-06 04:55:00,
2015-05-06 01:00:00,50.7,49.9,30.29,SE,138,1.0,1.0,97,0.19,,,0.12,Wunderground v.1.15,2015-05-06 05:00:00,
2015-05-06 01:10:00,50.7,49.9,30.28,ESE,122,0.0,0.0,97,0.19,,,0.15,Wunderground v.1.15,2015-05-06 05:10:00,
2015-05-06 01:15:00,50.7,49.9,30.28,NE,43,0.0,0.0,97,0.21,,,0.17,Wunderground v.1.15,2015-05-06 05:15:00,
2015-05-06 01:20:00,50.6,49.8,30.28,ENE,72,0.0,0.0,97,0.09,,,0.17,Wunderground v.1.15,2015-05-06 05:20:00,
2015-05-06 01:25:00,50.6,49.8,30.28,ENE,71,1.0,1.0,97,0.14,,,0.19,Wunderground v.1.15,2015-05-06 05:25:00,
2015-05-06 01:30:00,50.5,49.7,30.28,ESE,116,1.0,1.0,97,0.18,,,0.20,Wunderground v.1.15,2015-05-06 05:30:00,
2015-05-06 01:35:00,50.5,49.7,30.28,ENE,70,1.0,4.0,97,0.08,,,0.20,Wunderground v.1.15,2015-05-06 05:35:00,
2015-05-06 01:45:00,50.4,49.6,30.27,ENE,75,2.0,2.0,97,0.13,,,0.22,Wunderground v.1.15,2015-05-06 05:45:00,
2015-05-06 01:50:00,50.4,49.6,30.28,ESE,108,1.0,1.0,97,0.20,,,0.24,Wunderground v.1.15,2015-05-06 05:50:00,
2015-05-06 01:55:00,50.4,49.6,30.28,SE,137,0.0,1.0,97,0.17,,,0.25,Wunderground v.1.15,2015-05-06 05:55:00,
2015-05-06 02:00:00,50.4,49.6,30.28,SSE,162,0.0,0.0,97,0.16,,,0.27,Wunderground v.1.15,2015-05-06 06:00:00,
2015-05-06 02:05:00,50.4,49.6,30.28,SSE,148,0.0,0.0,97,0.17,,,0.28,Wunderground v.1.15,2015-05-06 06:05:00,
2015-05-06 02:10:00,50.4,49.6,30.28,ESE,121,0.0,0.0,97,0.14,,,0.29,Wunderground v.1.15,2015-05-06 06:10:00,
2015-05-06 02:20:00,50.4,49.6,30.26,ENE,59,1.0,3.0,97,0.12,,,0.31,Wunderground v.1.15,2015-05-06 06:20:00,
2015-05-06 02:30:00,50.4,49.6,30.26,ENE,74,1.0,2.0,97,0.12,,,0.33,Wunderground v.1.15,2015-05-06 06:30:00,
2015-05-06 02:35:00,50.3,49.5,30.26,East,86,1.0,2.0,97,0.13,,,0.35,Wunderground v.1.15,2015-05-06 06:35:00,
2015-05-06 02:40:00,50.4,49.6,30.26,ENE,68,1.0,1.0,97,0.12,,,0.35,Wunderground v.1.15,2015-05-06 06:40:00,
2015-05-06 02:45:00,50.3,49.5,30.26,NE,56,0.0,2.0,97,0.07,,,0.36,Wunderground v.1.15,2015-05-06 06:45:00,
2015-05-06 02:50:00,50.3,49.5,30.26,ENE,64,1.0,1.0,97,0.07,,,0.36,Wunderground v.1.15,2015-05-06 06:50:00,
2015-05-06 02:55:00,50.3,49.5,30.26,NE,41,1.0,2.0,97,0.19,,,0.38,Wunderground v.1.15,2015-05-06 06:55:00,
2015-05-06 03:00:00,50.3,49.5,30.26,ENE,58,1.0,1.0,97,0.18,,,0.39,Wunderground v.1.15,2015-05-06 07:00:00,
2015-05-06 03:10:00,50.3,49.5,30.26,ENE,75,0.0,0.0,97,0.27,,,0.42,Wunderground v.1.15,2015-05-06 07:10:00,
2015-05-06 03:15:00,50.3,49.5,30.26,ENE,65,0.0,0.0,97,0.18,,,0.43,Wunderground v.1.15,2015-05-06 07:15:00,
2015-05-06 03:20:00,50.3,49.5,30.26,ENE,75,1.0,1.0,97,0.09,,,0.44,Wunderground v.1.15,2015-05-06 07:20:00,
2015-05-06 03:25:00,50.3,49.5,30.26,East,87,1.0,2.0,97,0.19,,,0.46,Wunderground v.1.15,2015-05-06 07:25:00,
2015-05-06 03:30:00,50.3,49.5,30.26,ENE,67,1.0,1.0,97,0.11,,,0.47,Wunderground v.1.15,2015-05-06 07:30:00,
2015-05-06 03:35:00,50.3,49.5,30.25,East,79,1.0,1.0,97,0.08,,,0.47,Wunderground v.1.15,2015-05-06 07:35:00,
2015-05-06 03:40:00,50.3,49.5,30.25,ENE,70,1.0,1.0,97,0.05,,,0.47,Wunderground v.1.15,2015-05-06 07:40:00,
2015-05-06 03:50:00,50.3,49.5,30.26,East,79,1.0,1.0,97,0.00,,,0.47,Wunderground v.1.15,2015-05-06 07:50:00,
2015-05-06 03:55:00,50.4,49.6,30.26,NE,53,0.0,2.0,97,0.00,,,0.47,Wunderground v.1.15,2015-05-06 07:55:00,
2015-05-06 04:00:00,50.3,49.5,30.26,ENE,68,1.0,1.0,97,0.00,,,0.47,Wunderground v.1.15,2015-05-06 08:00:00,
2015-05-06 04:05:00,50.3,49.5,30.26,NNE,29,1.0,1.0,97,0.00,,,0.47,Wunderground v.1.15,2015-05-06 08:05:00,
2015-05-06 04:10:00,50.3,49.5,30.26,ENE,70,1.0,4.0,97,0.00,,,0.47,Wunderground v.1.15,2015-05-06 08:10:00,
2015-05-06 04:15:00,50.1,49.3,30.26,ENE,60,2.0,4.0,97,0.00,,,0.47,Wunderground v.1.15,2015-05-06 08:15:00,
2015-05-06 04:20:00,50.1,49.3,30.26,East,91,2.0,2.0,97,0.00,,,0.47,Wunderground v.1.15,2015-05-06 08:20:00,
2015-05-06 04:30:00,50.1,49.3,30.26,ENE,58,1.0,1.0,97,0.00,,,0.47,Wunderground v.1.15,2015-05-06 08:30:00,
2015-05-06 04:35:00,50.1,49.3,30.26,NE,51,1.0,1.0,97,0.00,,,0.47,Wunderground v.1.15,2015-05-06 08:35:00,
2015-05-06 04:40:00,50.1,49.3,30.26,NE,42,1.0,2.0,97,0.00,,,0.47,Wunderground v.1.15,2015-05-06 08:40:00,
2015-05-06 04:45:00,50.1,49.3,30.26,NE,39,1.0,2.0,97,0.00,,,0.47,Wunderground v.1.15,2015-05-06 08:45:00,
2015-05-06 04:50:00,50.8,50.0,30.26,ENE,75,0.0,0.0,97,0.00,,,0.47,Wunderground v.1.15,2015-05-06 08:50:00,
2015-05-06 04:55:00,50.8,50.0,30.26,ENE,75,0.0,0.0,97,0.00,,,0.47,Wunderground v.1.15,2015-05-06 08:55:00,
2015-05-06 05:00:00,-999.9,-99.9,30.26,North,32767,-999.9,0.0,255,-99.99,,,0.47,Wunderground v.1.15,2015-05-06 09:00:00,
2015-05-06 05:05:00,-999.9,-99.9,30.26,North,32767,-999.9,0.0,255,-99.99,,,0.47,Wunderground v.1.15,2015-05-06 09:05:00,
2015-05-06 05:15:00,-999.9,-99.9,30.26,North,32767,-999.9,0.0,255,-99.99,,,0.47,Wunderground v.1.15,2015-05-06 09:15:00,
2015-05-06 05:25:00,-999.9,-99.9,30.26,North,32767,-999.9,0.0,255,-99.99,,,0.47,Wunderground v.1.15,2015-05-06 09:25:00,
2015-05-06 05:30:00,-999.9,-99.9,30.26,North,32767,-999.9,0.0,255,-99.99,,,0.47,Wunderground v.1.15,2015-05-06 09:30:00,
2015-05-06 05:35:00,-999.9,-99.9,30.26,North,32767,-999.9,0.0,255,-99.99,,,0.47,Wunderground v.1.15,2015-05-06 09:35:00,
2015-05-06 05:40:00,-999.9,-99.9,30.26,North,32767,-999.9,0.0,255,-99.99,,,0.47,Wunderground v.1.15,2015-05-06 09:40:00,
2015-05-06 05:45:00,-999.9,-99.9,30.26,North,32767,-999.9,0.0,255,-99.99,,,0.47,Wunderground v.1.15,2015-05-06 09:45:00,
2015-05-06 05:55:00,-999.9,-99.9,30.26,North,32767,-999.9,0.0,255,-99.99,,,0.47,Wunderground v.1.15,2015-05-06 09:55:00,
2015-05-06 06:00:00,-999.9,-99.9,30.26,North,32767,-999.9,0.0,255,-99.99,,,0.47,Wunderground v.1.15,2015-05-06 10:00:00,
2015-05-06 06:10:00,-999.9,-99.9,30.26,North,32767,-999.9,0.0,255,-99.99,,,0.47,Wunderground v.1.15,2015-05-06 10:10:00,
2015-05-06 06:15:00,-999.9,-99.9,30.26,North,32767,-999.9,0.0,255,-99.99,,,0.47,Wunderground v.1.15,2015-05-06 10:15:00,
2015-05-06 06:20:00,-999.9,-99.9,30.26,North,32767,-999.9,0.0,255,-99.99,,,0.47,Wunderground v.1.15,2015-05-06 10:20:00,
2015-05-06 06:30:00,-999.9,-99.9,30.26,North,32767,-999.9,0.0,255,-99.99,,,0.47,Wunderground v.1.15,2015-05-06 10:30:00,
2015-05-06 06:35:00,-999.9,-99.9,30.26,North,32767,-999.9,0.0,255,-99.99,,,0.47,Wunderground v.1.15,2015-05-06 10:35:00,
2015-05-06 06:40:00,-999.9,-99.9,30.26,North,32767,-999.9,0.0,255,-99.99,,,0.47,Wunderground v.1.15,2015-05-06 10:40:00,
2015-05-06 06:45:00,-999.9,-99.9,30.26,North,32767,-999.9,0.0,255,-99.99,,,0.47,Wunderground v.1.15,2015-05-06 10:45:00,
2015-05-06 06:55:00,-999.9,-99.9,30.26,North,32767,-999.9,0.0,255,-99.99,,,0.47,Wunderground v.1.15,2015-05-06 10:55:00,
2015-05-06 07:05:00,-999.9,-99.9,30.26,North,32767,-999.9,0.0,255,-99.99,,,0.47,Wunderground v.1.15,2015-05-06 11:05:00,
2015-05-06 07:10:00,-999.9,-99.9,30.27,North,32767,-999.9,0.0,255,-99.99,,,0.47,Wunderground v.1.15,2015-05-06 11:10:00,
2015-05-06 07:15:00,-999.9,-99.9,30.27,North,32767,-999.9,0.0,255,-99.99,,,0.47,Wunderground v.1.15,2015-05-06 11:15:00,
2015-05-06 07:20:00,-999.9,-99.9,30.26,North,32767,-999.9,0.0,255,-99.99,,,0.47,Wunderground v.1.15,2015-05-06 11:20:00,
2015-05-06 07:25:00,50.6,50.1,30.27,ENE,65,0.0,0.0,98,0.00,,,0.47,Wunderground v.1.15,2015-05-06 11:25:00,
2015-05-06 07:35:00,50.7,50.2,30.27,East,80,1.0,1.0,98,0.00,,,0.47,Wunderground v.1.15,2015-05-06 11:35:00,
2015-05-06 07:40:00,50.7,50.2,30.27,NE,53,1.0,1.0,98,0.00,,,0.47,Wunderground v.1.15,2015-05-06 11:40:00,
2015-05-06 07:45:00,50.7,50.2,30.27,ENE,61,1.0,1.0,98,0.00,,,0.47,Wunderground v.1.15,2015-05-06 11:45:00,
2015-05-06 07:50:00,50.8,50.3,30.27,ENE,70,2.0,2.0,98,0.00,,,0.47,Wunderground v.1.15,2015-05-06 11:50:00,
2015-05-06 07:55:00,51.0,50.5,30.27,NE,51,1.0,3.0,98,0.00,,,0.47,Wunderground v.1.15,2015-05-06 11:55:00,
2015-05-06 08:00:00,51.1,50.6,30.27,ENE,78,1.0,2.0,98,0.00,,,0.47,Wunderground v.1.15,2015-05-06 12:00:00,
2015-05-06 08:10:00,51.2,50.7,30.27,East,79,2.0,2.0,98,0.00,,,0.47,Wunderground v.1.15,2015-05-06 12:10:00,
2015-05-06 08:15:00,51.3,50.5,30.27,ENE,60,2.0,2.0,97,0.00,,,0.47,Wunderground v.1.15,2015-05-06 12:15:00,
2015-05-06 08:20:00,51.3,50.5,30.27,East,98,2.0,2.0,97,0.00,,,0.47,Wunderground v.1.15,2015-05-06 12:20:00,
2015-05-06 08:25:00,51.5,50.7,30.28,ENE,72,2.0,2.0,97,0.00,,,0.47,Wunderground v.1.15,2015-05-06 12:25:00,
2015-05-06 08:30:00,51.6,50.8,30.28,East,91,2.0,2.0,97,0.00,,,0.47,Wunderground v.1.15,2015-05-06 12:30:00,
2015-05-06 08:35:00,51.6,50.8,30.28,ENE,70,2.0,2.0,97,0.00,,,0.47,Wunderground v.1.15,2015-05-06 12:35:00,
2015-05-06 08:40:00,51.6,50.8,30.28,East,96,3.0,4.0,97,0.00,,,0.47,Wunderground v.1.15,2015-05-06 12:40:00,
2015-05-06 08:45:00,51.7,50.9,30.28,ENE,70,3.0,4.0,97,0.00,,,0.47,Wunderground v.1.15,2015-05-06 12:45:00,
2015-05-06 08:50:00,52.0,51.2,30.28,ENE,67,2.0,2.0,97,0.00,,,0.47,Wunderground v.1.15,2015-05-06 12:50:00,
2015-05-06 09:00:00,52.3,51.5,30.28,East,87,1.0,3.0,97,0.00,,,0.47,Wunderground v.1.15,2015-05-06 13:00:00,
2015-05-06 09:05:00,52.5,51.7,30.28,NNE,20,2.0,3.0,97,0.00,,,0.47,Wunderground v.1.15,2015-05-06 13:05:00,
2015-05-06 09:10:00,52.7,51.9,30.28,East,97,2.0,2.0,97,0.00,,,0.47,Wunderground v.1.15,2015-05-06 13:10:00,
2015-05-06 09:15:00,52.9,51.8,30.28,ENE,76,1.0,2.0,96,0.00,,,0.47,Wunderground v.1.15,2015-05-06 13:15:00,
2015-05-06 09:20:00,53.0,51.9,30.28,NNE,23,1.0,1.0,96,0.00,,,0.47,Wunderground v.1.15,2015-05-06 13:20:00,
2015-05-06 09:25:00,53.1,52.0,30.29,ENE,70,1.0,2.0,96,0.00,,,0.47,Wunderground v.1.15,2015-05-06 13:25:00,
2015-05-06 09:35:00,53.3,51.9,30.28,East,84,2.0,4.0,95,0.00,,,0.47,Wunderground v.1.15,2015-05-06 13:35:00,
2015-05-06 09:40:00,53.4,52.0,30.28,ENE,77,2.0,2.0,95,0.00,,,0.47,Wunderground v.1.15,2015-05-06 13:40:00,
2015-05-06 09:45:00,53.7,52.3,30.28,ENE,75,1.0,2.0,95,0.00,,,0.47,Wunderground v.1.15,2015-05-06 13:45:00,
2015-05-06 09:50:00,54.2,53.1,30.28,ESE,120,1.0,1.0,96,0.00,,,0.47,Wunderground v.1.15,2015-05-06 13:50:00,
2015-05-06 09:55:00,54.6,53.2,30.28,East,88,1.0,3.0,95,0.00,,,0.47,Wunderground v.1.15,2015-05-06 13:55:00,
2015-05-06 10:00:00,54.6,52.9,30.27,East,86,1.0,2.0,94,0.00,,,0.47,Wunderground v.1.15,2015-05-06 14:00:00,
2015-05-06 10:10:00,55.0,53.3,30.27,ESE,108,2.0,4.0,94,0.00,,,0.47,Wunderground v.1.15,2015-05-06 14:10:00,
2015-05-06 10:15:00,55.2,53.2,30.27,NE,53,3.0,4.0,93,0.00,,,0.47,Wunderground v.1.15,2015-05-06 14:15:00,
2015-05-06 10:20:00,55.5,53.2,30.27,ENE,65,3.0,3.0,92,0.00,,,0.47,Wunderground v.1.15,2015-05-06 14:20:00,
2015-05-06 10:25:00,55.7,53.4,30.27,ENE,67,3.0,3.0,92,0.00,,,0.47,Wunderground v.1.15,2015-05-06 14:25:00,
2015-05-06 10:30:00,55.8,53.5,30.27,East,84,3.0,5.0,92,0.00,,,0.47,Wunderground v.1.15,2015-05-06 14:30:00,
2015-05-06 10:35:00,56.1,53.8,30.27,ESE,120,3.0,5.0,92,0.00,,,0.47,Wunderground v.1.15,2015-05-06 14:35:00,
2015-05-06 10:40:00,56.4,54.1,30.27,ESE,122,3.0,3.0,92,0.00,,,0.47,Wunderground v.1.15,2015-05-06 14:40:00,
2015-05-06 10:50:00,57.2,54.6,30.27,East,85,2.0,2.0,91,0.00,,,0.47,Wunderground v.1.15,2015-05-06 14:50:00,
2015-05-06 10:55:00,57.4,54.5,30.27,East,91,2.0,2.0,90,0.00,,,0.47,Wunderground v.1.15,2015-05-06 14:55:00,
2015-05-06 11:00:00,57.6,54.7,30.27,SSE,149,2.0,5.0,90,0.00,,,0.47,Wunderground v.1.15,2015-05-06 15:00:00,
2015-05-06 11:05:00,57.7,54.8,30.27,NE,53,3.0,5.0,90,0.00,,,0.47,Wunderground v.1.15,2015-05-06 15:05:00,
2015-05-06 11:10:00,58.1,55.2,30.27,ENE,76,3.0,3.0,90,0.00,,,0.47,Wunderground v.1.15,2015-05-06 15:10:00,
2015-05-06 11:20:00,58.6,55.4,30.27,SSE,153,2.0,2.0,89,0.00,,,0.47,Wunderground v.1.15,2015-05-06 15:20:00,
2015-05-06 11:25:00,58.6,55.1,30.27,NE,51,2.0,2.0,88,0.00,,,0.47,Wunderground v.1.15,2015-05-06 15:25:00,
2015-05-06 11:30:00,58.7,55.5,30.27,ENE,70,1.0,2.0,89,0.00,,,0.47,Wunderground v.1.15,2015-05-06 15:30:00,
2015-05-06 11:40:00,59.0,55.8,30.27,East,96,1.0,1.0,89,0.00,,,0.47,Wunderground v.1.15,2015-05-06 15:40:00,
2015-05-06 11:45:00,59.2,55.6,30.27,East,85,2.0,2.0,88,0.00,,,0.47,Wunderground v.1.15,2015-05-06 15:45:00,
2015-05-06 11:50:00,59.5,55.9,30.27,ESE,106,2.0,2.0,88,0.00,,,0.47,Wunderground v.1.15,2015-05-06 15:50:00,
2015-05-06 11:55:00,59.7,55.8,30.27,SSE,149,3.0,3.0,87,0.00,,,0.47,Wunderground v.1.15,2015-05-06 15:55:00,
2015-05-06 12:00:00,60.0,56.1,30.26,ENE,66,3.0,4.0,87,0.00,,,0.47,Wunderground v.1.15,2015-05-06 16:00:00,
2015-05-06 12:10:00,60.5,56.3,30.26,East,84,3.0,3.0,86,0.00,,,0.47,Wunderground v.1.15,2015-05-06 16:10:00,
2015-05-06 12:15:00,60.7,56.5,30.26,ENE,64,3.0,3.0,86,0.00,,,0.47,Wunderground v.1.15,2015-05-06 16:15:00,
2015-05-06 12:20:00,61.2,57.0,30.26,SE,129,3.0,3.0,86,0.00,,,0.47,Wunderground v.1.15,2015-05-06 16:20:00,
2015-05-06 12:25:00,61.3,56.8,30.26,South,174,3.0,3.0,85,0.00,,,0.47,Wunderground v.1.15,2015-05-06 16:25:00,
2015-05-06 12:30:00,61.9,57.0,30.26,ESE,115,2.0,2.0,84,0.00,,,0.47,Wunderground v.1.15,2015-05-06 16:30:00,
2015-05-06 12:35:00,62.3,57.1,30.26,ENE,65,2.0,3.0,83,0.00,,,0.47,Wunderground v.1.15,2015-05-06 16:35:00,
2015-05-06 12:40:00,63.1,58.2,30.26,East,84,1.0,3.0,84,0.00,,,0.47,Wunderground v.1.15,2015-05-06 16:40:00,
2015-05-06 12:45:00,63.1,57.5,30.26,East,99,2.0,3.0,82,0.00,,,0.47,Wunderground v.1.15,2015-05-06 16:45:00,
2015-05-06 12:50:00,63.3,58.0,30.26,SE,129,3.0,3.0,83,0.00,,,0.47,Wunderground v.1.15,2015-05-06 16:50:00,
2015-05-06 12:55:00,63.5,57.9,30.26,SE,136,2.0,3.0,82,0.00,,,0.47,Wunderground v.1.15,2015-05-06 16:55:00,
2015-05-06 13:05:00,63.9,57.6,30.25,NE,36,3.0,3.0,80,0.00,,,0.47,Wunderground v.1.15,2015-05-06 17:05:00,
2015-05-06 13:10:00,63.8,57.9,30.25,NE,36,3.0,3.0,81,0.00,,,0.47,Wunderground v.1.15,2015-05-06 17:10:00,
2015-05-06 13:15:00,63.9,58.3,30.25,ENE,57,3.0,3.0,82,0.00,,,0.47,Wunderground v.1.15,2015-05-06 17:15:00,
2015-05-06 13:25:00,64.6,58.6,30.25,SSE,148,2.0,2.0,81,0.00,,,0.47,Wunderground v.1.15,2015-05-06 17:25:00,
2015-05-06 13:35:00,65.4,59.1,30.25,SSE,148,2.0,2.0,80,0.00,,,0.47,Wunderground v.1.15,2015-05-06 17:35:00,
2015-05-06 13:40:00,66.8,59.4,30.25,NE,54,1.0,1.0,77,0.00,,,0.47,Wunderground v.1.15,2015-05-06 17:40:00,
2015-05-06 13:45:00,66.3,58.9,30.25,SE,145,2.0,3.0,77,0.00,,,0.47,Wunderground v.1.15,2015-05-06 17:45:00,
2015-05-06 13:50:00,67.0,59.9,30.24,ESE,119,2.0,3.0,78,0.00,,,0.47,Wunderground v.1.15,2015-05-06 17:50:00,
2015-05-06 13:55:00,68.0,59.4,30.25,SE,134,1.0,3.0,74,0.00,,,0.47,Wunderground v.1.15,2015-05-06 17:55:00,
2015-05-06 14:00:00,68.0,60.2,30.24,SE,125,2.0,4.0,76,0.00,,,0.47,Wunderground v.1.15,2015-05-06 18:00:00,
2015-05-06 14:15:00,68.1,59.5,30.24,SW,231,2.0,4.0,74,0.00,,,0.47,Wunderground v.1.15,2015-05-06 18:15:00,
2015-05-06 14:20:00,68.2,59.6,30.24,SSE,149,1.0,3.0,74,0.00,,,0.47,Wunderground v.1.15,2015-05-06 18:20:00,
2015-05-06 14:25:00,68.3,59.7,30.23,SE,138,1.0,5.0,74,0.00,,,0.47,Wunderground v.1.15,2015-05-06 18:25:00,
2015-05-06 14:35:00,68.0,59.0,30.23,South,177,3.0,3.0,73,0.00,,,0.47,Wunderground v.1.15,2015-05-06 18:35:00,
2015-05-06 14:40:00,68.3,60.1,30.23,ENE,60,3.0,3.0,75,0.00,,,0.47,Wunderground v.1.15,2015-05-06 18:40:00,
2015-05-06 14:50:00,70.2,60.7,30.23,SE,124,1.0,1.0,72,0.00,,,0.47,Wunderground v.1.15,2015-05-06 18:50:00,
2015-05-06 14:55:00,69.9,60.1,30.23,ESE,114,2.0,2.0,71,0.00,,,0.47,Wunderground v.1.15,2015-05-06 18:55:00,
2015-05-06 15:00:00,70.6,60.7,30.22,NE,40,2.0,4.0,71,0.00,,,0.47,Wunderground v.1.15,2015-05-06 19:00:00,
2015-05-06 15:05:00,70.5,61.0,30.22,East,89,2.0,4.0,72,0.00,,,0.47,Wunderground v.1.15,2015-05-06 19:05:00,
2015-05-06 15:10:00,70.1,60.3,30.22,NE,38,2.0,3.0,71,0.00,,,0.47,Wunderground v.1.15,2015-05-06 19:10:00,
2015-05-06 15:20:00,69.9,60.8,30.22,SSE,160,3.0,3.0,73,0.00,,,0.47,Wunderground v.1.15,2015-05-06 19:20:00,
2015-05-06 15:30:00,71.1,60.8,30.21,SW,228,2.0,2.0,70,0.00,,,0.47,Wunderground v.1.15,2015-05-06 19:30:00,
2015-05-06 15:35:00,71.6,60.5,30.21,NNE,23,1.0,2.0,68,0.00,,,0.47,Wunderground v.1.15,2015-05-06 19:35:00,
2015-05-06 15:40:00,71.0,60.7,30.21,ENE,78,2.0,4.0,70,0.00,,,0.47,Wunderground v.1.15,2015-05-06 19:40:00,
2015-05-06 15:45:00,70.8,60.5,30.21,NE,46,2.0,4.0,70,0.00,,,0.47,Wunderground v.1.15,2015-05-06 19:45:00,
2015-05-06 15:50:00,71.0,60.7,30.21,ENE,58,2.0,2.0,70,0.00,,,0.47,Wunderground v.1.15,2015-05-06 19:50:00,
2015-05-06 15:55:00,71.1,60.8,30.20,NE,47,2.0,2.0,70,0.00,,,0.47,Wunderground v.1.15,2015-05-06 19:55:00,
2015-05-06 16:05:00,71.1,60.8,30.20,SE,134,1.0,3.0,70,0.00,,,0.47,Wunderground v.1.15,2015-05-06 20:05:00,
2015-05-06 16:15:00,71.3,61.0,30.20,NE,53,2.0,3.0,70,0.00,,,0.47,Wunderground v.1.15,2015-05-06 20:15:00,
2015-05-06 16:20:00,71.0,60.3,30.20,East,80,2.0,2.0,69,0.00,,,0.47,Wunderground v.1.15,2015-05-06 20:20:00,
2015-05-06 16:25:00,71.1,61.2,30.19,SE,136,2.0,3.0,71,0.00,,,0.47,Wunderground v.1.15,2015-05-06 20:25:00,
2015-05-06 16:30:00,71.7,61.0,30.19,ENE,74,2.0,4.0,69,0.00,,,0.47,Wunderground v.1.15,2015-05-06 20:30:00,
2015-05-06 16:40:00,71.9,61.2,30.19,South,170,3.0,3.0,69,0.00,,,0.47,Wunderground v.1.15,2015-05-06 20:40:00,
2015-05-06 16:45:00,72.3,61.1,30.19,ESE,115,2.0,3.0,68,0.00,,,0.47,Wunderground v.1.15,2015-05-06 20:45:00,
2015-05-06 16:50:00,72.2,61.0,30.19,ESE,113,1.0,1.0,68,0.00,,,0.47,Wunderground v.1.15,2015-05-06 20:50:00,
2015-05-06 16:55:00,72.6,61.4,30.19,ESE,107,2.0,3.0,68,0.00,,,0.47,Wunderground v.1.15,2015-05-06 20:55:00,
2015-05-06 17:00:00,72.7,60.7,30.19,ESE,117,1.0,1.0,66,0.00,,,0.47,Wunderground v.1.15,2015-05-06 21:00:00,
2015-05-06 17:05:00,72.5,60.9,30.18,SSE,150,2.0,5.0,67,0.00,,,0.47,Wunderground v.1.15,2015-05-06 21:05:00,
2015-05-06 17:10:00,72.6,61.0,30.18,SSE,166,2.0,2.0,67,0.00,,,0.47,Wunderground v.1.15,2015-05-06 21:10:00,
2015-05-06 17:20:00,72.6,61.8,30.18,SE,144,2.0,3.0,69,0.00,,,0.47,Wunderground v.1.15,2015-05-06 21:20:00,
2015-05-06 17:25:00,72.4,61.2,30.18,SE,134,2.0,3.0,68,0.00,,,0.47,Wunderground v.1.15,2015-05-06 21:25:00,
2015-05-06 17:30:00,72.1,61.0,30.18,SE,131,3.0,3.0,68,0.00,,,0.47,Wunderground v.1.15,2015-05-06 21:30:00,
2015-05-06 17:40:00,72.0,60.9,30.18,SE,146,2.0,2.0,68,0.00,,,0.47,Wunderground v.1.15,2015-05-06 21:40:00,
2015-05-06 17:45:00,72.1,61.4,30.18,SSE,148,2.0,2.0,69,0.00,,,0.47,Wunderground v.1.15,2015-05-06 21:45:00,
2015-05-06 17:50:00,72.3,61.1,30.18,ESE,107,2.0,5.0,68,0.00,,,0.47,Wunderground v.1.15,2015-05-06 21:50:00,
2015-05-06 17:55:00,72.1,61.4,30.18,ENE,61,2.0,5.0,69,0.00,,,0.47,Wunderground v.1.15,2015-05-06 21:55:00,
2015-05-06 18:00:00,72.1,61.4,30.18,ESE,122,3.0,5.0,69,0.00,,,0.47,Wunderground v.1.15,2015-05-06 22:00:00,
2015-05-06 18:05:00,71.8,61.1,30.17,ENE,73,4.0,5.0,69,0.00,,,0.47,Wunderground v.1.15,2015-05-06 22:05:00,
2015-05-06 18:15:00,72.0,61.3,30.17,NE,54,1.0,3.0,69,0.00,,,0.47,Wunderground v.1.15,2015-05-06 22:15:00,
2015-05-06 18:25:00,71.8,61.1,30.17,ESE,102,2.0,3.0,69,0.00,,,0.47,Wunderground v.1.15,2015-05-06 22:25:00,
2015-05-06 18:30:00,71.9,61.2,30.17,ESE,114,2.0,2.0,69,0.00,,,0.47,Wunderground v.1.15,2015-05-06 22:30:00,
2015-05-06 18:35:00,72.0,61.3,30.17,ESE,122,2.0,2.0,69,0.00,,,0.47,Wunderground v.1.15,2015-05-06 22:35:00,
2015-05-06 18:40:00,71.6,60.9,30.17,East,79,3.0,3.0,69,0.00,,,0.47,Wunderground v.1.15,2015-05-06 22:40:00,
2015-05-06 18:45:00,71.4,61.1,30.17,ESE,106,3.0,3.0,70,0.00,,,0.47,Wunderground v.1.15,2015-05-06 22:45:00,
2015-05-06 18:55:00,71.1,60.8,30.17,SSE,167,3.0,3.0,70,0.00,,,0.47,Wunderground v.1.15,2015-05-06 22:55:00,
2015-05-06 19:00:00,71.0,61.1,30.17,ESE,122,2.0,2.0,71,0.00,,,0.47,Wunderground v.1.15,2015-05-06 23:00:00,
2015-05-06 19:05:00,70.7,60.8,30.17,ESE,115,2.0,2.0,71,0.00,,,0.47,Wunderground v.1.15,2015-05-06 23:05:00,
2015-05-06 19:15:00,70.4,60.9,30.16,ESE,117,2.0,2.0,72,0.00,,,0.47,Wunderground v.1.15,2015-05-06 23:15:00,
2015-05-06 19:20:00,70.3,61.2,30.16,ESE,110,2.0,2.0,73,0.00,,,0.47,Wunderground v.1.15,2015-05-06 23:20:00,
2015-05-06 19:30:00,69.9,60.8,30.16,SE,133,2.0,2.0,73,0.00,,,0.47,Wunderground v.1.15,2015-05-06 23:30:00,
2015-05-06 19:35:00,69.7,61.0,30.16,ESE,114,2.0,4.0,74,0.00,,,0.47,Wunderground v.1.15,2015-05-06 23:35:00,
2015-05-06 19:40:00,69.5,60.8,30.16,ESE,120,2.0,2.0,74,0.00,,,0.47,Wunderground v.1.15,2015-05-06 23:40:00,
2015-05-06 19:45:00,69.4,61.1,30.16,SE,135,1.0,2.0,75,0.00,,,0.47,Wunderground v.1.15,2015-05-06 23:45:00,
2015-05-06 19:50:00,69.1,60.8,30.16,ENE,70,1.0,3.0,75,0.00,,,0.47,Wunderground v.1.15,2015-05-06 23:50:00,
2015-05-06 19:55:00,68.9,61.0,30.16,SE,146,1.0,3.0,76,0.00,,,0.47,Wunderground v.1.15,2015-05-06 23:55:00,
2015-05-06 20:05:00,68.1,60.6,30.16,South,169,3.0,3.0,77,0.00,,,0.47,Wunderground v.1.15,2015-05-07 00:05:00,
2015-05-06 20:10:00,67.7,60.6,30.16,ESE,121,3.0,3.0,78,0.00,,,0.47,Wunderground v.1.15,2015-05-07 00:10:00,
2015-05-06 20:15:00,67.4,60.3,30.16,ESE,118,3.0,3.0,78,0.00,,,0.47,Wunderground v.1.15,2015-05-07 00:15:00,
2015-05-06 20:25:00,66.8,60.1,30.16,SSE,153,2.0,7.0,79,0.00,,,0.47,Wunderground v.1.15,2015-05-07 00:25:00,
2015-05-06 20:30:00,66.5,60.1,30.16,SSE,164,3.0,3.0,80,0.00,,,0.47,Wunderground v.1.15,2015-05-07 00:30:00,
2015-05-06 20:35:00,66.1,59.7,30.16,SE,145,2.0,3.0,80,0.00,,,0.47,Wunderground v.1.15,2015-05-07 00:35:00,
2015-05-06 20:40:00,65.9,59.9,30.16,ESE,108,1.0,1.0,81,0.00,,,0.47,Wunderground v.1.15,2015-05-07 00:40:00,
2015-05-06 20:55:00,65.1,59.5,30.16,ESE,115,1.0,1.0,82,0.00,,,0.47,Wunderground v.1.15,2015-05-07 00:55:00,
2015-05-06 21:00:00,64.8,59.5,30.16,SE,139,1.0,1.0,83,0.00,,,0.47,Wunderground v.1.15,2015-05-07 01:00:00,
2015-05-06 21:05:00,64.5,59.6,30.16,SE,141,0.0,1.0,84,0.00,,,0.47,Wunderground v.1.15,2015-05-07 01:05:00,
2015-05-06 21:10:00,64.2,59.3,30.16,SE,140,0.0,0.0,84,0.00,,,0.47,Wunderground v.1.15,2015-05-07 01:10:00,
2015-05-06 21:15:00,63.8,59.2,30.16,SSE,148,0.0,0.0,85,0.00,,,0.47,Wunderground v.1.15,2015-05-07 01:15:00,
2015-05-06 21:25:00,63.3,59.0,30.17,SE,130,0.0,0.0,86,0.00,,,0.47,Wunderground v.1.15,2015-05-07 01:25:00,
2015-05-06 21:30:00,63.0,59.1,30.17,SE,129,0.0,0.0,87,0.00,,,0.47,Wunderground v.1.15,2015-05-07 01:30:00,
2015-05-06 21:35:00,62.8,58.9,30.17,SE,146,1.0,1.0,87,0.00,,,0.47,Wunderground v.1.15,2015-05-07 01:35:00,
2015-05-06 21:40:00,62.5,58.6,30.17,SE,134,1.0,1.0,87,0.00,,,0.47,Wunderground v.1.15,2015-05-07 01:40:00,
2015-05-06 21:45:00,62.3,58.4,30.17,SSE,159,0.0,1.0,87,0.00,,,0.47,Wunderground v.1.15,2015-05-07 01:45:00,
2015-05-06 21:50:00,62.1,58.5,30.17,SSE,162,0.0,1.0,88,0.00,,,0.47,Wunderground v.1.15,2015-05-07 01:50:00,
2015-05-06 22:00:00,61.6,58.0,30.18,South,186,1.0,2.0,88,0.00,,,0.47,Wunderground v.1.15,2015-05-07 02:00:00,
2015-05-06 22:05:00,61.3,57.7,30.18,SSE,155,1.0,2.0,88,0.00,,,0.47,Wunderground v.1.15,2015-05-07 02:05:00,
2015-05-06 22:15:00,61.0,57.4,30.18,South,172,1.0,1.0,88,0.00,,,0.47,Wunderground v.1.15,2015-05-07 02:15:00,
2015-05-06 22:20:00,60.8,57.2,30.18,SSE,165,1.0,1.0,88,0.00,,,0.47,Wunderground v.1.15,2015-05-07 02:20:00,
2015-05-06 22:25:00,60.5,57.2,30.18,SE,143,0.0,1.0,89,0.00,,,0.47,Wunderground v.1.15,2015-05-07 02:25:00,
2015-05-06 22:35:00,60.1,56.8,30.18,SSE,159,1.0,1.0,89,0.00,,,0.47,Wunderground v.1.15,2015-05-07 02:35:00,
2015-05-06 22:40:00,59.9,56.6,30.18,South,169,1.0,2.0,89,0.00,,,0.47,Wunderground v.1.15,2015-05-07 02:40:00,
2015-05-06 22:45:00,59.7,56.5,30.19,SSE,165,1.0,2.0,89,0.00,,,0.47,Wunderground v.1.15,2015-05-07 02:45:00,